Location: *
(49.9853°N, 3.5569°E)
Time: 12:29:21
(UTC+00:00)

SPOT 1/Viking Rocket - Pass Details

Date: 22 September 2019
Orbit: 777 x 795 km, 98.5° (Epoch: 18 October)

Event Time Altitude Azimuth Distance (km) Brightness Sun altitude
Exits shadow 21:25:03 48° 319° (NW) 1,023 4.4 -32.3°
Drops below altitude 10° 21:28:53 10° 341° (NNW) 2,349 6.8 -32.7°
Sets 21:31:13 0° 344° (NNW) 3,279 7.7 -33.0°
